sat.trackr.live / text

‹ back to catalog

STARLINK-3133

NORAD 49416 · 2021-104J

PAYLOAD ACTIVE UNKNOWN

§ Identity

Operator
Country
US
Launch date
2021-11-13
Launch site
AFETR
Launch vehicle
Mass (kg)
RCS (m²)

Purposes: comms

External: N2YO · Heavens-Above · Gunter

§ Orbital elements

Epoch: 2026-09-20T00:08:35.321568Z

Period
93.85 min
Inclination
53.1612°
Eccentricity
0.0001065
Mean motion
15.34392599 rev/d
Perigee alt
462.0 km
Apogee alt
463.5 km
Semi-major
6,840.9 km
B*
1.6872e-5
RAAN
63.6830°
Arg perigee
82.0308°
Mean anomaly
278.0815°
Rev number
26,814

§ Raw data

STARLINK-31331 49416U 21104J   26263.00596437  .00000194  00000+0  16872-4 0  99962 49416  53.1612  63.6830 0001065  82.0308 278.0815 15.34392599268145

JSON: /api/v1/satellites/49416 · /tle

For live sub-satellite position, see the globe view (requires WebGL).

§ Visibility from observer

Set your observer location to see the next 7 days of passes ≥ 10°. The values pass through the URL so the page stays shareable.

No JS? Fill the form by hand. The geolocation button needs JavaScript.